Погода в Мещовске

Россия / Калужская область     54°19′17″N   35°16′41″E
темп.,
°C
ветер,
м/с
пор.,
м/с
влажн.,
%
обл.,
%
осадки,
мм/ч
давл.,
гПа
погр.,
м
2 июля, сб
сб200:00+11в34730 0.0 102348
03:00+9всв22750 0.0 102410
06:00+10с23790 0.0 102564
09:00+16с34655 0.0 1025393
12:00+19с23545 0.0 1024926
15:00+21ссз24484 0.0 10221260
18:00+22сз2460100 0.0 1021491
21:00+15ссз33685 0.0 102132
3 июля, вс
вс300:00+13сз336950 0.0 102020
03:00+13сз357532 0.0 102062
06:00+15зсз388894 0.0 1019162
09:00+20сз477115 0.0 1019391
12:00+25ссз5757100 0.0 1018954
15:00+26ссз4658100 0.0 10171501
18:00+24ссз4868100 0.0 1017294
21:00+19ссз347457 0.0 101742
4 июля, пн
пн400:00+17сз337455 0.0 101836
03:00+17ссз337879 0.0 101842
06:00+17ссз238321 0.0 101850
09:00+22с2270100 0.0 1018305
12:00+25с126253 0.0 1018739
15:00+27с125635 0.0 10171179
18:00+26ююз23699 0.1 1017408
21:00+21зсз1181100 0.8 101711
5 июля, вт
вт500:00+19ююв118784 0.9 101811
03:00+17зюз118971 1.6 101811
06:00+19юз118915 0.3 101829
09:00+23з127610 0.3 1018346
12:00+26зсз236761 2.6 1017506
15:00+27зюз235549 4.0 10171677
18:00+27ююв126672 0.0 1017557
21:00+21ю348420 0.1 101658
6 июля, ср
ср600:00+19юз3486100 0.1 101752
03:00+18ююз348855 0.1 101657
06:00+19ю488997 0.0 1016173
09:00+22ююз51177100 0.0 1015393
12:00+25ююз696542 0.0 1015796
15:00+25юз6106885 0.1 10141026
18:00+24юз3879100 0.6 1014781
21:00+19ссз3595100 2.4 1014100